contact:dominique.lefevre@mio.osupytheas.fr, maurice.libes@osupytheas.fr, didier.mallarino@osupytheas.fr
Project:EMSO http://www.emso-fr.org/EMSO-France
Depth: 2436.0 m
Title:EMSO Ligure Ouest : Data MII capteur MICROCAT
DateTime_Computer,Latitude,Longitude,Temperature,Conductivity,Pressure,DateTime_Instrument
DateTime_Computer,Latitude,Longitude,degC,S m-1,dbar,DateTime_Instrument
2023-01-11T00:01:36Z,42.805,6.029,13.3011,4.60069,2470.591,2023-1-11T02:07:49Z
2023-01-11T00:04:39Z,42.805,6.029,13.3011,4.60068,2470.577,2023-1-11T02:10:53Z
2023-01-11T00:07:42Z,42.805,6.029,13.3011,4.60064,2470.553,2023-1-11T02:13:56Z
2023-01-11T00:10:45Z,42.805,6.029,13.3010,4.60064,2470.553,2023-1-11T02:16:59Z
2023-01-11T00:13:48Z,42.805,6.029,13.3011,4.60067,2470.577,2023-1-11T02:20:02Z
2023-01-11T00:16:51Z,42.805,6.029,13.3011,4.60070,2470.577,2023-1-11T02:23:05Z
2023-01-11T00:19:54Z,42.805,6.029,13.3014,4.60064,2470.553,2023-1-11T02:26:08Z
2023-01-11T00:22:57Z,42.805,6.029,13.3009,4.60063,2470.567,2023-1-11T02:29:11Z
2023-01-11T00:26:00Z,42.805,6.029,13.3009,4.60066,2470.553,2023-1-11T02:32:14Z
2023-01-11T00:29:04Z,42.805,6.029,13.3011,4.60064,2470.577,2023-1-11T02:35:17Z
2023-01-11T00:32:07Z,42.805,6.029,13.3011,4.60068,2470.577,2023-1-11T02:38:20Z
2023-01-11T00:35:10Z,42.805,6.029,13.3012,4.60067,2470.553,2023-1-11T02:41:23Z
2023-01-11T00:38:13Z,42.805,6.029,13.3013,4.60063,2470.53,2023-1-11T02:44:27Z
2023-01-11T00:41:16Z,42.805,6.029,13.3015,4.60064,2470.544,2023-1-11T02:47:30Z
2023-01-11T00:44:19Z,42.805,6.029,13.3017,4.60065,2470.544,2023-1-11T02:50:33Z
2023-01-11T00:47:22Z,42.805,6.029,13.3010,4.60064,2470.567,2023-1-11T02:53:36Z
2023-01-11T00:50:25Z,42.805,6.029,13.3008,4.60062,2470.53,2023-1-11T02:56:39Z
2023-01-11T00:53:28Z,42.805,6.029,13.3013,4.60068,2470.53,2023-1-11T02:59:42Z
2023-01-11T00:56:31Z,42.805,6.029,13.3009,4.60066,2470.507,2023-1-11T03:02:45Z
2023-01-11T00:59:34Z,42.805,6.029,13.3012,4.60067,2470.553,2023-1-11T03:05:48Z
2023-01-11T01:02:38Z,42.805,6.029,13.3010,4.60067,2470.553,2023-1-11T03:08:51Z
2023-01-11T01:05:41Z,42.805,6.029,13.3015,4.60067,2470.567,2023-1-11T03:11:54Z
2023-01-11T01:08:44Z,42.805,6.029,13.3011,4.60064,2470.53,2023-1-11T03:14:57Z
2023-01-11T01:11:47Z,42.805,6.029,13.3011,4.60063,2470.553,2023-1-11T03:18:00Z
2023-01-11T01:14:50Z,42.805,6.029,13.3008,4.60070,2470.567,2023-1-11T03:21:04Z
2023-01-11T01:17:53Z,42.805,6.029,13.3011,4.60067,2470.553,2023-1-11T03:24:07Z
2023-01-11T01:20:56Z,42.805,6.029,13.3014,4.60070,2470.53,2023-1-11T03:27:10Z
2023-01-11T01:23:59Z,42.805,6.029,13.3014,4.60065,2470.516,2023-1-11T03:30:13Z
2023-01-11T01:27:02Z,42.805,6.029,13.3006,4.60067,2470.553,2023-1-11T03:33:16Z
2023-01-11T01:30:05Z,42.805,6.029,13.3011,4.60064,2470.53,2023-1-11T03:36:19Z
2023-01-11T01:33:08Z,42.805,6.029,13.3010,4.60064,2470.553,2023-1-11T03:39:22Z
2023-01-11T01:36:12Z,42.805,6.029,13.3011,4.60068,2470.544,2023-1-11T03:42:25Z
2023-01-11T01:39:15Z,42.805,6.029,13.3011,4.60079,2470.553,2023-1-11T03:45:28Z
2023-01-11T01:42:18Z,42.805,6.029,13.3011,4.60064,2470.507,2023-1-11T03:48:31Z
2023-01-11T01:45:21Z,42.805,6.029,13.3009,4.60064,2470.53,2023-1-11T03:51:35Z
2023-01-11T01:48:24Z,42.805,6.029,13.3008,4.60064,2470.553,2023-1-11T03:54:38Z
2023-01-11T01:51:27Z,42.805,6.029,13.3004,4.60064,2470.507,2023-1-11T03:57:41Z
2023-01-11T01:54:30Z,42.805,6.029,13.3012,4.60067,2470.53,2023-1-11T04:00:44Z
2023-01-11T01:57:33Z,42.805,6.029,13.3010,4.60064,2470.53,2023-1-11T04:03:47Z
2023-01-11T02:00:36Z,42.805,6.029,13.3010,4.60067,2470.53,2023-1-11T04:06:50Z
2023-01-11T02:03:39Z,42.805,6.029,13.3014,4.60064,2470.567,2023-1-11T04:09:53Z
2023-01-11T02:06:42Z,42.805,6.029,13.3007,4.60064,2470.53,2023-1-11T04:12:56Z
2023-01-11T02:09:46Z,42.805,6.029,13.3013,4.60064,2470.553,2023-1-11T04:15:59Z
2023-01-11T02:12:49Z,42.805,6.029,13.3006,4.60064,2470.53,2023-1-11T04:19:02Z
2023-01-11T02:15:52Z,42.805,6.029,13.3009,4.60064,2470.53,2023-1-11T04:22:05Z
2023-01-11T02:18:55Z,42.805,6.029,13.3011,4.60072,2470.507,2023-1-11T04:25:08Z
2023-01-11T02:21:58Z,42.805,6.029,13.3007,4.60067,2470.553,2023-1-11T04:28:12Z
2023-01-11T02:25:01Z,42.805,6.029,13.3011,4.60063,2470.507,2023-1-11T04:31:15Z
2023-01-11T02:28:04Z,42.805,6.029,13.3010,4.60067,2470.53,2023-1-11T04:34:18Z
2023-01-11T02:31:07Z,42.805,6.029,13.3008,4.60067,2470.53,2023-1-11T04:37:21Z
2023-01-11T02:34:10Z,42.805,6.029,13.3010,4.60068,2470.507,2023-1-11T04:40:24Z
2023-01-11T02:37:13Z,42.805,6.029,13.3012,4.60072,2470.553,2023-1-11T04:43:27Z
2023-01-11T02:40:16Z,42.805,6.029,13.3012,4.60064,2470.567,2023-1-11T04:46:30Z
2023-01-11T02:43:19Z,42.805,6.029,13.3012,4.60067,2470.544,2023-1-11T04:49:33Z
2023-01-11T02:46:23Z,42.805,6.029,13.3011,4.60064,2470.52,2023-1-11T04:52:36Z
2023-01-11T02:49:26Z,42.805,6.029,13.3011,4.60075,2470.507,2023-1-11T04:55:39Z
2023-01-11T02:52:29Z,42.805,6.029,13.3009,4.60069,2470.53,2023-1-11T04:58:42Z
2023-01-11T02:55:32Z,42.805,6.029,13.3011,4.60063,2470.507,2023-1-11T05:01:45Z
2023-01-11T02:58:35Z,42.805,6.029,13.3009,4.60063,2470.53,2023-1-11T05:04:49Z
2023-01-11T03:01:38Z,42.805,6.029,13.3014,4.60065,2470.53,2023-1-11T05:07:52Z
2023-01-11T03:04:41Z,42.805,6.029,13.3008,4.60065,2470.53,2023-1-11T05:10:55Z
2023-01-11T03:07:44Z,42.805,6.029,13.3014,4.60064,2470.53,2023-1-11T05:13:58Z
2023-01-11T03:10:47Z,42.805,6.029,13.3013,4.60069,2470.544,2023-1-11T05:17:01Z
2023-01-11T03:13:50Z,42.805,6.029,13.3011,4.60064,2470.483,2023-1-11T05:20:04Z
2023-01-11T03:16:53Z,42.805,6.029,13.3012,4.60064,2470.507,2023-1-11T05:23:07Z
2023-01-11T03:19:56Z,42.805,6.029,13.3010,4.60063,2470.52,2023-1-11T05:26:10Z
2023-01-11T03:23:00Z,42.805,6.029,13.3014,4.60067,2470.553,2023-1-11T05:29:13Z
2023-01-11T03:26:03Z,42.805,6.029,13.3009,4.60067,2470.53,2023-1-11T05:32:16Z
2023-01-11T03:29:06Z,42.805,6.029,13.3011,4.60064,2470.507,2023-1-11T05:35:19Z
2023-01-11T03:32:09Z,42.805,6.029,13.3010,4.60069,2470.53,2023-1-11T05:38:23Z
2023-01-11T03:35:12Z,42.805,6.029,13.3009,4.60067,2470.53,2023-1-11T05:41:26Z
2023-01-11T03:38:15Z,42.805,6.029,13.3014,4.60072,2470.53,2023-1-11T05:44:29Z
2023-01-11T03:41:18Z,42.805,6.029,13.3013,4.60067,2470.591,2023-1-11T05:47:32Z
2023-01-11T03:44:21Z,42.805,6.029,13.3012,4.60067,2470.53,2023-1-11T05:50:35Z
2023-01-11T03:47:24Z,42.805,6.029,13.3009,4.60066,2470.553,2023-1-11T05:53:38Z
2023-01-11T03:50:27Z,42.805,6.029,13.3011,4.60066,2470.507,2023-1-11T05:56:41Z
2023-01-11T03:53:30Z,42.805,6.029,13.3014,4.60064,2470.516,2023-1-11T05:59:44Z
2023-01-11T03:56:33Z,42.805,6.029,13.3014,4.60063,2470.52,2023-1-11T06:02:47Z
2023-01-11T03:59:37Z,42.805,6.029,13.3012,4.60065,2470.553,2023-1-11T06:05:50Z
2023-01-11T04:02:40Z,42.805,6.029,13.3013,4.60062,2470.53,2023-1-11T06:08:53Z
2023-01-11T04:05:43Z,42.805,6.029,13.3013,4.60067,2470.544,2023-1-11T06:11:56Z
2023-01-11T04:08:46Z,42.805,6.029,13.3011,4.60067,2470.553,2023-1-11T06:15:00Z
2023-01-11T04:11:49Z,42.805,6.029,13.3009,4.60064,2470.53,2023-1-11T06:18:03Z
2023-01-11T04:14:52Z,42.805,6.029,13.3014,4.60070,2470.544,2023-1-11T06:21:06Z
2023-01-11T04:17:55Z,42.805,6.029,13.3011,4.60072,2470.567,2023-1-11T06:24:09Z
2023-01-11T04:20:58Z,42.805,6.029,13.3011,4.60068,2470.53,2023-1-11T06:27:12Z
2023-01-11T04:24:01Z,42.805,6.029,13.3011,4.60065,2470.53,2023-1-11T06:30:15Z
2023-01-11T04:27:04Z,42.805,6.029,13.3014,4.60063,2470.507,2023-1-11T06:33:18Z
2023-01-11T04:30:07Z,42.805,6.029,13.3014,4.60072,2470.553,2023-1-11T06:36:21Z
2023-01-11T04:33:10Z,42.805,6.029,13.3010,4.60064,2470.53,2023-1-11T06:39:24Z
2023-01-11T04:36:14Z,42.805,6.029,13.3014,4.60066,2470.553,2023-1-11T06:42:27Z
2023-01-11T04:39:17Z,42.805,6.029,13.3012,4.60064,2470.553,2023-1-11T06:45:30Z
2023-01-11T04:42:20Z,42.805,6.029,13.3007,4.60064,2470.553,2023-1-11T06:48:34Z
2023-01-11T04:45:23Z,42.805,6.029,13.3011,4.60068,2470.591,2023-1-11T06:51:37Z
2023-01-11T04:48:26Z,42.805,6.029,13.3012,4.60072,2470.544,2023-1-11T06:54:40Z
2023-01-11T04:51:29Z,42.805,6.029,13.3011,4.60067,2470.544,2023-1-11T06:57:43Z
2023-01-11T04:54:32Z,42.805,6.029,13.3014,4.60064,2470.567,2023-1-11T07:00:46Z
2023-01-11T04:57:35Z,42.805,6.029,13.3014,4.60064,2470.591,2023-1-11T07:03:49Z
2023-01-11T05:00:38Z,42.805,6.029,13.3012,4.60070,2470.553,2023-1-11T07:06:52Z
2023-01-11T05:03:41Z,42.805,6.029,13.3011,4.60064,2470.553,2023-1-11T07:09:55Z
2023-01-11T05:06:44Z,42.805,6.029,13.3011,4.60071,2470.53,2023-1-11T07:12:58Z
2023-01-11T05:09:48Z,42.805,6.029,13.3011,4.60070,2470.567,2023-1-11T07:16:01Z
2023-01-11T05:12:51Z,42.805,6.029,13.3014,4.60070,2470.553,2023-1-11T07:19:04Z
2023-01-11T05:15:54Z,42.805,6.029,13.3009,4.60072,2470.53,2023-1-11T07:22:08Z
2023-01-11T05:18:57Z,42.805,6.029,13.3012,4.60065,2470.591,2023-1-11T07:25:11Z
2023-01-11T05:22:00Z,42.805,6.029,13.3010,4.60064,2470.591,2023-1-11T07:28:14Z
2023-01-11T05:25:03Z,42.805,6.029,13.3014,4.60062,2470.567,2023-1-11T07:31:17Z
2023-01-11T05:28:06Z,42.805,6.029,13.3011,4.60063,2470.567,2023-1-11T07:34:20Z
2023-01-11T05:31:09Z,42.805,6.029,13.3011,4.60069,2470.567,2023-1-11T07:37:23Z
2023-01-11T05:34:12Z,42.805,6.029,13.3015,4.60067,2470.624,2023-1-11T07:40:26Z
2023-01-11T05:37:15Z,42.805,6.029,13.3014,4.60067,2470.553,2023-1-11T07:43:29Z
2023-01-11T05:40:18Z,42.805,6.029,13.3011,4.60073,2470.591,2023-1-11T07:46:32Z
2023-01-11T05:43:22Z,42.805,6.029,13.3010,4.60069,2470.591,2023-1-11T07:49:35Z
2023-01-11T05:46:25Z,42.805,6.029,13.3009,4.60065,2470.553,2023-1-11T07:52:38Z
2023-01-11T05:49:28Z,42.805,6.029,13.3012,4.60067,2470.563,2023-1-11T07:55:42Z
2023-01-11T05:52:31Z,42.805,6.029,13.3011,4.60069,2470.591,2023-1-11T07:58:45Z
2023-01-11T05:55:34Z,42.805,6.029,13.3012,4.60071,2470.614,2023-1-11T08:01:48Z
2023-01-11T05:58:37Z,42.805,6.029,13.3012,4.60064,2470.624,2023-1-11T08:04:51Z
2023-01-11T06:01:40Z,42.805,6.029,13.3015,4.60066,2470.624,2023-1-11T08:07:54Z
2023-01-11T06:04:43Z,42.805,6.029,13.3013,4.60084,2470.577,2023-1-11T08:10:57Z
2023-01-11T06:07:46Z,42.805,6.029,13.3011,4.60076,2470.6,2023-1-11T08:14:00Z
2023-01-11T06:10:49Z,42.805,6.029,13.3015,4.60081,2470.614,2023-1-11T08:17:03Z
2023-01-11T06:13:52Z,42.805,6.029,13.3009,4.60077,2470.591,2023-1-11T08:20:06Z
2023-01-11T06:16:55Z,42.805,6.029,13.3009,4.60073,2470.6,2023-1-11T08:23:09Z
2023-01-11T06:19:59Z,42.805,6.029,13.3011,4.60067,2470.6,2023-1-11T08:26:12Z
2023-01-11T06:23:02Z,42.805,6.029,13.3010,4.60077,2470.6,2023-1-11T08:29:16Z
2023-01-11T06:26:05Z,42.805,6.029,13.3012,4.60067,2470.614,2023-1-11T08:32:19Z
2023-01-11T06:29:08Z,42.805,6.029,13.3013,4.60079,2470.6,2023-1-11T08:35:22Z
2023-01-11T06:32:11Z,42.805,6.029,13.3008,4.60081,2470.624,2023-1-11T08:38:25Z
2023-01-11T06:35:14Z,42.805,6.029,13.3013,4.60072,2470.637,2023-1-11T08:41:28Z
2023-01-11T06:38:17Z,42.805,6.029,13.3014,4.60074,2470.628,2023-1-11T08:44:31Z
2023-01-11T06:41:20Z,42.805,6.029,13.3011,4.60075,2470.624,2023-1-11T08:47:34Z
2023-01-11T06:44:23Z,42.805,6.029,13.3014,4.60070,2470.624,2023-1-11T08:50:37Z
2023-01-11T06:47:26Z,42.805,6.029,13.3014,4.60073,2470.646,2023-1-11T08:53:40Z
2023-01-11T06:50:29Z,42.805,6.029,13.3011,4.60075,2470.624,2023-1-11T08:56:43Z
2023-01-11T06:53:33Z,42.805,6.029,13.3011,4.60067,2470.624,2023-1-11T08:59:46Z
2023-01-11T06:56:36Z,42.805,6.029,13.3013,4.60071,2470.624,2023-1-11T09:02:49Z
2023-01-11T06:59:39Z,42.805,6.029,13.3010,4.60067,2470.614,2023-1-11T09:05:53Z
2023-01-11T07:02:42Z,42.805,6.029,13.3008,4.60067,2470.646,2023-1-11T09:08:56Z
2023-01-11T07:05:45Z,42.805,6.029,13.3009,4.60067,2470.646,2023-1-11T09:11:59Z
2023-01-11T07:08:48Z,42.805,6.029,13.3012,4.60067,2470.646,2023-1-11T09:15:02Z
2023-01-11T07:11:51Z,42.805,6.029,13.3009,4.60067,2470.646,2023-1-11T09:18:05Z
2023-01-11T07:14:54Z,42.805,6.029,13.3014,4.60067,2470.646,2023-1-11T09:21:08Z
2023-01-11T07:17:57Z,42.805,6.029,13.3011,4.60070,2470.646,2023-1-11T09:24:11Z
2023-01-11T07:21:00Z,42.805,6.029,13.3011,4.60066,2470.661,2023-1-11T09:27:14Z
2023-01-11T07:24:03Z,42.805,6.029,13.3012,4.60067,2470.646,2023-1-11T09:30:17Z
2023-01-11T07:27:07Z,42.805,6.029,13.3008,4.60066,2470.67,2023-1-11T09:33:20Z
2023-01-11T07:30:10Z,42.805,6.029,13.3010,4.60067,2470.67,2023-1-11T09:36:23Z
2023-01-11T07:33:13Z,42.805,6.029,13.3011,4.60067,2470.693,2023-1-11T09:39:27Z
2023-01-11T07:36:16Z,42.805,6.029,13.3012,4.60067,2470.67,2023-1-11T09:42:30Z
2023-01-11T07:39:19Z,42.805,6.029,13.3009,4.60068,2470.707,2023-1-11T09:45:33Z
2023-01-11T07:42:22Z,42.805,6.029,13.3011,4.60066,2470.684,2023-1-11T09:48:36Z
2023-01-11T07:45:25Z,42.805,6.029,13.3008,4.60066,2470.693,2023-1-11T09:51:39Z
2023-01-11T07:48:28Z,42.805,6.029,13.3010,4.60067,2470.684,2023-1-11T09:54:42Z
2023-01-11T07:51:31Z,42.805,6.029,13.3011,4.60068,2470.707,2023-1-11T09:57:45Z
2023-01-11T07:54:34Z,42.805,6.029,13.3016,4.60066,2470.707,2023-1-11T10:00:48Z
2023-01-11T07:57:37Z,42.805,6.029,13.3011,4.60067,2470.67,2023-1-11T10:03:51Z
2023-01-11T08:00:40Z,42.805,6.029,13.3013,4.60069,2470.693,2023-1-11T10:06:54Z
2023-01-11T08:03:44Z,42.805,6.029,13.3010,4.60067,2470.73,2023-1-11T10:09:57Z
2023-01-11T08:06:47Z,42.805,6.029,13.3011,4.60067,2470.717,2023-1-11T10:13:01Z
2023-01-11T08:09:50Z,42.805,6.029,13.3010,4.60065,2470.74,2023-1-11T10:16:04Z
2023-01-11T08:12:53Z,42.805,6.029,13.3010,4.60067,2470.693,2023-1-11T10:19:07Z
2023-01-11T08:15:56Z,42.805,6.029,13.3011,4.60067,2470.707,2023-1-11T10:22:10Z
2023-01-11T08:18:59Z,42.805,6.029,13.3010,4.60068,2470.679,2023-1-11T10:25:13Z
2023-01-11T08:22:02Z,42.805,6.029,13.3014,4.60069,2470.754,2023-1-11T10:28:16Z
2023-01-11T08:25:05Z,42.805,6.029,13.3012,4.60068,2470.717,2023-1-11T10:31:19Z
2023-01-11T08:28:08Z,42.805,6.029,13.3014,4.60067,2470.754,2023-1-11T10:34:22Z
2023-01-11T08:31:11Z,42.805,6.029,13.3012,4.60067,2470.74,2023-1-11T10:37:25Z
2023-01-11T08:34:14Z,42.805,6.029,13.3013,4.60066,2470.763,2023-1-11T10:40:28Z
2023-01-11T08:37:18Z,42.805,6.029,13.3011,4.60067,2470.717,2023-1-11T10:43:31Z
2023-01-11T08:40:21Z,42.805,6.029,13.3010,4.60067,2470.73,2023-1-11T10:46:35Z
2023-01-11T08:43:24Z,42.805,6.029,13.3011,4.60068,2470.73,2023-1-11T10:49:38Z
2023-01-11T08:46:27Z,42.805,6.029,13.3011,4.60069,2470.754,2023-1-11T10:52:41Z
2023-01-11T08:49:30Z,42.805,6.029,13.3012,4.60069,2470.74,2023-1-11T10:55:44Z
2023-01-11T08:52:33Z,42.805,6.029,13.3012,4.60070,2470.73,2023-1-11T10:58:47Z
2023-01-11T08:55:36Z,42.805,6.029,13.3011,4.60070,2470.74,2023-1-11T11:01:50Z
2023-01-11T08:58:39Z,42.805,6.029,13.3011,4.60072,2470.754,2023-1-11T11:04:53Z
2023-01-11T09:01:42Z,42.805,6.029,13.3013,4.60069,2470.763,2023-1-11T11:07:56Z
2023-01-11T09:04:45Z,42.805,6.029,13.3011,4.60069,2470.763,2023-1-11T11:10:59Z
2023-01-11T09:07:48Z,42.805,6.029,13.3014,4.60068,2470.8,2023-1-11T11:14:02Z
2023-01-11T09:10:52Z,42.805,6.029,13.3012,4.60074,2470.787,2023-1-11T11:17:06Z
2023-01-11T09:13:55Z,42.805,6.029,13.3013,4.60074,2470.777,2023-1-11T11:20:09Z
2023-01-11T09:16:58Z,42.805,6.029,13.3011,4.60073,2470.754,2023-1-11T11:23:12Z
2023-01-11T09:20:01Z,42.805,6.029,13.3009,4.60073,2470.763,2023-1-11T11:26:15Z
2023-01-11T09:23:04Z,42.805,6.029,13.3011,4.60072,2470.763,2023-1-11T11:29:18Z
2023-01-11T09:26:07Z,42.805,6.029,13.3012,4.60067,2470.787,2023-1-11T11:32:21Z
2023-01-11T09:29:10Z,42.805,6.029,13.3014,4.60070,2470.74,2023-1-11T11:35:24Z
2023-01-11T09:32:13Z,42.805,6.029,13.3011,4.60071,2470.787,2023-1-11T11:38:27Z
2023-01-11T09:35:16Z,42.805,6.029,13.3009,4.60067,2470.8,2023-1-11T11:41:30Z
2023-01-11T09:38:19Z,42.805,6.029,13.3012,4.60069,2470.74,2023-1-11T11:44:33Z
2023-01-11T09:41:23Z,42.805,6.029,13.3011,4.60074,2470.787,2023-1-11T11:47:36Z
2023-01-11T09:44:26Z,42.805,6.029,13.3010,4.60069,2470.8,2023-1-11T11:50:40Z
2023-01-11T09:47:29Z,42.805,6.029,13.3013,4.60070,2470.763,2023-1-11T11:53:43Z
2023-01-11T09:50:32Z,42.805,6.029,13.3014,4.60070,2470.787,2023-1-11T11:56:46Z
2023-01-11T09:53:35Z,42.805,6.029,13.3015,4.60068,2470.777,2023-1-11T11:59:49Z
2023-01-11T09:56:38Z,42.805,6.029,13.3012,4.60070,2470.763,2023-1-11T12:02:52Z
2023-01-11T09:59:41Z,42.805,6.029,13.3014,4.60068,2470.763,2023-1-11T12:05:55Z
2023-01-11T10:02:44Z,42.805,6.029,13.3008,4.60067,2470.763,2023-1-11T12:08:58Z
2023-01-11T10:05:47Z,42.805,6.029,13.3010,4.60072,2470.787,2023-1-11T12:12:01Z
2023-01-11T10:08:50Z,42.805,6.029,13.3012,4.60068,2470.763,2023-1-11T12:15:04Z
2023-01-11T10:11:53Z,42.805,6.029,13.3015,4.60069,2470.763,2023-1-11T12:18:07Z
2023-01-11T10:14:57Z,42.805,6.029,13.3011,4.60069,2470.787,2023-1-11T12:21:10Z
2023-01-11T10:18:00Z,42.805,6.029,13.3011,4.60069,2470.763,2023-1-11T12:24:14Z
2023-01-11T10:21:03Z,42.805,6.029,13.3011,4.60067,2470.787,2023-1-11T12:27:17Z
2023-01-11T10:24:06Z,42.805,6.029,13.3014,4.60072,2470.777,2023-1-11T12:30:20Z
2023-01-11T10:27:09Z,42.805,6.029,13.3011,4.60069,2470.777,2023-1-11T12:33:23Z
2023-01-11T10:30:12Z,42.805,6.029,13.3011,4.60067,2470.777,2023-1-11T12:36:26Z
2023-01-11T10:33:15Z,42.805,6.029,13.3011,4.60067,2470.777,2023-1-11T12:39:29Z
2023-01-11T10:36:18Z,42.805,6.029,13.3012,4.60068,2470.763,2023-1-11T12:42:32Z
2023-01-11T10:39:21Z,42.805,6.029,13.3015,4.60066,2470.763,2023-1-11T12:45:35Z
2023-01-11T10:42:24Z,42.805,6.029,13.3017,4.60066,2470.777,2023-1-11T12:48:38Z
2023-01-11T10:45:27Z,42.805,6.029,13.3008,4.60072,2470.763,2023-1-11T12:51:41Z
2023-01-11T10:48:31Z,42.805,6.029,13.3012,4.60069,2470.777,2023-1-11T12:54:45Z
2023-01-11T10:51:34Z,42.805,6.029,13.3009,4.60066,2470.777,2023-1-11T12:57:48Z
2023-01-11T10:54:37Z,42.805,6.029,13.3006,4.60064,2470.787,2023-1-11T13:00:51Z
2023-01-11T10:57:40Z,42.805,6.029,13.3011,4.60069,2470.754,2023-1-11T13:03:54Z
2023-01-11T11:00:43Z,42.805,6.029,13.3014,4.60067,2470.74,2023-1-11T13:06:57Z
2023-01-11T11:03:46Z,42.805,6.029,13.3011,4.60067,2470.74,2023-1-11T13:10:00Z
2023-01-11T11:06:49Z,42.805,6.029,13.3011,4.60070,2470.81,2023-1-11T13:13:03Z
2023-01-11T11:09:52Z,42.805,6.029,13.3010,4.60069,2470.763,2023-1-11T13:16:06Z
2023-01-11T11:12:55Z,42.805,6.029,13.3015,4.60068,2470.763,2023-1-11T13:19:09Z
2023-01-11T11:15:58Z,42.805,6.029,13.3014,4.60072,2470.787,2023-1-11T13:22:12Z
2023-01-11T11:19:01Z,42.805,6.029,13.3011,4.60069,2470.777,2023-1-11T13:25:15Z
2023-01-11T11:22:05Z,42.805,6.029,13.3014,4.60067,2470.754,2023-1-11T13:28:19Z
2023-01-11T11:25:08Z,42.805,6.029,13.3013,4.60067,2470.754,2023-1-11T13:31:22Z
2023-01-11T11:28:11Z,42.805,6.029,13.3008,4.60067,2470.754,2023-1-11T13:34:25Z
2023-01-11T11:31:14Z,42.805,6.029,13.3012,4.60067,2470.763,2023-1-11T13:37:28Z
2023-01-11T11:34:17Z,42.805,6.029,13.3013,4.60070,2470.754,2023-1-11T13:40:31Z
2023-01-11T11:37:20Z,42.805,6.029,13.3012,4.60067,2470.754,2023-1-11T13:43:34Z
2023-01-11T11:40:23Z,42.805,6.029,13.3011,4.60068,2470.717,2023-1-11T13:46:37Z
2023-01-11T11:43:26Z,42.805,6.029,13.3014,4.60068,2470.73,2023-1-11T13:49:40Z
2023-01-11T11:46:29Z,42.805,6.029,13.3011,4.60068,2470.74,2023-1-11T13:52:43Z
2023-01-11T11:49:32Z,42.805,6.029,13.3014,4.60067,2470.717,2023-1-11T13:55:46Z
2023-01-11T11:52:35Z,42.805,6.029,13.3009,4.60069,2470.693,2023-1-11T13:58:49Z
2023-01-11T11:55:39Z,42.805,6.029,13.3015,4.60068,2470.717,2023-1-11T14:01:53Z
2023-01-11T11:58:42Z,42.805,6.029,13.3009,4.60069,2470.754,2023-1-11T14:04:56Z
2023-01-11T12:01:45Z,42.805,6.029,13.3011,4.60068,2470.754,2023-1-11T14:07:59Z
2023-01-11T12:04:48Z,42.805,6.029,13.3012,4.60064,2470.67,2023-1-11T14:11:02Z
2023-01-11T12:07:51Z,42.805,6.029,13.3011,4.60066,2470.693,2023-1-11T14:14:05Z
2023-01-11T12:10:54Z,42.805,6.029,13.3008,4.60068,2470.717,2023-1-11T14:17:08Z
2023-01-11T12:13:57Z,42.805,6.029,13.3013,4.60069,2470.717,2023-1-11T14:20:11Z
2023-01-11T12:17:00Z,42.805,6.029,13.3014,4.60069,2470.717,2023-1-11T14:23:14Z
2023-01-11T12:20:03Z,42.805,6.029,13.3009,4.60068,2470.707,2023-1-11T14:26:17Z
2023-01-11T12:23:06Z,42.805,6.029,13.3009,4.60064,2470.717,2023-1-11T14:29:20Z
2023-01-11T12:26:09Z,42.805,6.029,13.3012,4.60068,2470.707,2023-1-11T14:32:24Z
2023-01-11T12:29:13Z,42.805,6.029,13.3010,4.60065,2470.693,2023-1-11T14:35:27Z
2023-01-11T12:32:16Z,42.805,6.029,13.3009,4.60068,2470.693,2023-1-11T14:38:30Z
2023-01-11T12:35:19Z,42.805,6.029,13.3009,4.60066,2470.717,2023-1-11T14:41:33Z
2023-01-11T12:38:22Z,42.805,6.029,13.3011,4.60067,2470.67,2023-1-11T14:44:36Z
2023-01-11T12:41:25Z,42.805,6.029,13.3014,4.60069,2470.693,2023-1-11T14:47:39Z
2023-01-11T12:44:28Z,42.805,6.029,13.3009,4.60067,2470.73,2023-1-11T14:50:42Z
2023-01-11T12:47:31Z,42.805,6.029,13.3009,4.60064,2470.707,2023-1-11T14:53:45Z
2023-01-11T12:50:34Z,42.805,6.029,13.3006,4.60064,2470.684,2023-1-11T14:56:48Z
2023-01-11T12:53:37Z,42.805,6.029,13.3009,4.60069,2470.693,2023-1-11T14:59:51Z
2023-01-11T12:56:40Z,42.805,6.029,13.3009,4.60064,2470.693,2023-1-11T15:02:54Z
2023-01-11T12:59:43Z,42.805,6.029,13.3014,4.60064,2470.67,2023-1-11T15:05:58Z
2023-01-11T13:02:47Z,42.805,6.029,13.3010,4.60067,2470.67,2023-1-11T15:09:01Z
2023-01-11T13:05:50Z,42.805,6.029,13.3008,4.60064,2470.67,2023-1-11T15:12:04Z
2023-01-11T13:08:53Z,42.805,6.029,13.3014,4.60068,2470.693,2023-1-11T15:15:07Z
2023-01-11T13:11:56Z,42.805,6.029,13.3009,4.60068,2470.646,2023-1-11T15:18:10Z
2023-01-11T13:14:59Z,42.805,6.029,13.3013,4.60064,2470.67,2023-1-11T15:21:13Z
2023-01-11T13:18:02Z,42.805,6.029,13.3015,4.60066,2470.684,2023-1-11T15:24:16Z
2023-01-11T13:21:05Z,42.805,6.029,13.3010,4.60067,2470.67,2023-1-11T15:27:19Z
2023-01-11T13:24:08Z,42.805,6.029,13.3011,4.60066,2470.661,2023-1-11T15:30:22Z
2023-01-11T13:27:11Z,42.805,6.029,13.3011,4.60067,2470.646,2023-1-11T15:33:25Z
2023-01-11T13:30:14Z,42.805,6.029,13.3014,4.60068,2470.624,2023-1-11T15:36:28Z
2023-01-11T13:33:17Z,42.805,6.029,13.3007,4.60068,2470.67,2023-1-11T15:39:32Z
2023-01-11T13:36:21Z,42.805,6.029,13.3015,4.60069,2470.646,2023-1-11T15:42:35Z
2023-01-11T13:39:24Z,42.805,6.029,13.3011,4.60067,2470.67,2023-1-11T15:45:38Z
2023-01-11T13:42:27Z,42.805,6.029,13.3011,4.60064,2470.646,2023-1-11T15:48:41Z
2023-01-11T13:45:30Z,42.805,6.029,13.3008,4.60064,2470.661,2023-1-11T15:51:44Z
2023-01-11T13:48:33Z,42.805,6.029,13.3013,4.60067,2470.684,2023-1-11T15:54:47Z
2023-01-11T13:51:36Z,42.805,6.029,13.3014,4.60066,2470.646,2023-1-11T15:57:50Z
2023-01-11T13:54:39Z,42.805,6.029,13.3008,4.60065,2470.646,2023-1-11T16:00:53Z
2023-01-11T13:57:42Z,42.805,6.029,13.3014,4.60065,2470.646,2023-1-11T16:03:56Z
2023-01-11T14:00:45Z,42.805,6.029,13.3010,4.60066,2470.67,2023-1-11T16:06:59Z
2023-01-11T14:03:48Z,42.805,6.029,13.3010,4.60067,2470.6,2023-1-11T16:10:03Z
2023-01-11T14:06:52Z,42.805,6.029,13.3009,4.60066,2470.624,2023-1-11T16:13:06Z
2023-01-11T14:09:55Z,42.805,6.029,13.3011,4.60067,2470.624,2023-1-11T16:16:09Z
2023-01-11T14:12:58Z,42.805,6.029,13.3014,4.60065,2470.661,2023-1-11T16:19:12Z
2023-01-11T14:16:01Z,42.805,6.029,13.3015,4.60065,2470.61,2023-1-11T16:22:15Z
2023-01-11T14:19:04Z,42.805,6.029,13.3009,4.60067,2470.637,2023-1-11T16:25:18Z
2023-01-11T14:22:07Z,42.805,6.029,13.3015,4.60064,2470.646,2023-1-11T16:28:21Z
2023-01-11T14:25:10Z,42.805,6.029,13.3012,4.60068,2470.624,2023-1-11T16:31:24Z
2023-01-11T14:28:13Z,42.805,6.029,13.3013,4.60064,2470.646,2023-1-11T16:34:27Z
2023-01-11T14:31:16Z,42.805,6.029,13.3011,4.60064,2470.637,2023-1-11T16:37:30Z
2023-01-11T14:34:19Z,42.805,6.029,13.3014,4.60065,2470.67,2023-1-11T16:40:33Z
2023-01-11T14:37:22Z,42.805,6.029,13.3011,4.60065,2470.624,2023-1-11T16:43:37Z
2023-01-11T14:40:26Z,42.805,6.029,13.3009,4.60064,2470.637,2023-1-11T16:46:40Z
2023-01-11T14:43:29Z,42.805,6.029,13.3014,4.60064,2470.577,2023-1-11T16:49:43Z
2023-01-11T14:46:32Z,42.805,6.029,13.3015,4.60064,2470.624,2023-1-11T16:52:46Z
2023-01-11T14:49:35Z,42.805,6.029,13.3014,4.60064,2470.646,2023-1-11T16:55:49Z
2023-01-11T14:52:38Z,42.805,6.029,13.3011,4.60063,2470.624,2023-1-11T16:58:52Z
2023-01-11T14:55:41Z,42.805,6.029,13.3013,4.60066,2470.624,2023-1-11T17:01:55Z
2023-01-11T14:58:44Z,42.805,6.029,13.3014,4.60065,2470.646,2023-1-11T17:04:58Z
2023-01-11T15:01:47Z,42.805,6.029,13.3011,4.60064,2470.633,2023-1-11T17:08:01Z
2023-01-11T15:04:50Z,42.805,6.029,13.3014,4.60068,2470.646,2023-1-11T17:11:04Z
2023-01-11T15:07:53Z,42.805,6.029,13.3011,4.60067,2470.624,2023-1-11T17:14:07Z
2023-01-11T15:10:56Z,42.805,6.029,13.3010,4.60064,2470.637,2023-1-11T17:17:11Z
2023-01-11T15:13:59Z,42.805,6.029,13.3015,4.60064,2470.624,2023-1-11T17:20:14Z